Year,Month,Day,Hour,Minute,Value (Times are PST for temperature in C)
2009,06,04,00,00,23.50
2009,06,04,00,01,23.60
2009,06,04,00,02,23.60
2009,06,04,00,03,23.60
2009,06,04,00,04,23.50
2009,06,04,00,05,23.50
2009,06,04,00,06,23.50
2009,06,04,00,07,23.50
2009,06,04,00,08,23.50
2009,06,04,00,09,23.50
2009,06,04,00,10,23.40
2009,06,04,00,11,23.40
2009,06,04,00,12,23.40
2009,06,04,00,13,23.40
2009,06,04,00,14,23.40
2009,06,04,00,15,23.30
2009,06,04,00,16,23.30
2009,06,04,00,17,23.30
2009,06,04,00,18,23.30
2009,06,04,00,19,23.30
2009,06,04,00,20,23.30
2009,06,04,00,21,23.30
2009,06,04,00,22,23.30
2009,06,04,00,23,23.30
2009,06,04,00,24,23.30
2009,06,04,00,25,23.20
2009,06,04,00,26,23.10
2009,06,04,00,27,23.10
2009,06,04,00,28,23.00
2009,06,04,00,29,22.90
2009,06,04,00,30,22.90
2009,06,04,00,31,23.00
2009,06,04,00,32,23.00
2009,06,04,00,33,23.10
2009,06,04,00,34,23.10
2009,06,04,00,35,23.10
2009,06,04,00,36,23.00
2009,06,04,00,37,22.90
2009,06,04,00,38,22.70
2009,06,04,00,39,22.50
2009,06,04,00,40,22.10
2009,06,04,00,41,21.80
2009,06,04,00,42,21.40
2009,06,04,00,43,21.10
2009,06,04,00,44,20.90
2009,06,04,00,45,20.70
2009,06,04,00,46,20.60
2009,06,04,00,47,20.50
2009,06,04,00,48,20.40
2009,06,04,00,49,20.40
2009,06,04,00,50,20.30
2009,06,04,00,51,20.30
2009,06,04,00,52,20.20
2009,06,04,00,53,20.20
2009,06,04,00,54,20.10
2009,06,04,00,55,20.10
2009,06,04,00,56,20.10
2009,06,04,00,57,20.10
2009,06,04,00,58,20.00
2009,06,04,00,59,20.00
2009,06,04,01,00,20.00
2009,06,04,01,01,20.00
2009,06,04,01,02,20.00
2009,06,04,01,03,20.00
2009,06,04,01,04,20.00
2009,06,04,01,05,20.00
2009,06,04,01,06,20.00
2009,06,04,01,07,20.00
2009,06,04,01,08,20.00
2009,06,04,01,09,20.00
2009,06,04,01,10,19.90
2009,06,04,01,11,19.90
2009,06,04,01,12,19.90
2009,06,04,01,13,19.90
2009,06,04,01,14,19.90
2009,06,04,01,15,19.90
2009,06,04,01,16,20.00
2009,06,04,01,17,20.00
2009,06,04,01,18,20.00
2009,06,04,01,19,20.00
2009,06,04,01,20,20.10
2009,06,04,01,21,20.10
2009,06,04,01,22,20.10
2009,06,04,01,23,20.20
2009,06,04,01,24,20.30
2009,06,04,01,25,20.30
2009,06,04,01,26,20.40
2009,06,04,01,27,20.50
2009,06,04,01,28,20.50
2009,06,04,01,29,20.60
2009,06,04,01,30,20.60
2009,06,04,01,31,20.60
2009,06,04,01,32,20.50
2009,06,04,01,33,20.40
2009,06,04,01,34,20.30
2009,06,04,01,35,20.30
2009,06,04,01,36,20.30
2009,06,04,01,37,20.30
2009,06,04,01,38,20.30
2009,06,04,01,39,20.30
2009,06,04,01,40,20.40
2009,06,04,01,41,20.30
2009,06,04,01,42,20.30
2009,06,04,01,43,20.30
2009,06,04,01,44,20.30
2009,06,04,01,45,20.30
2009,06,04,01,46,20.30
2009,06,04,01,47,20.30
2009,06,04,01,48,20.30
2009,06,04,01,49,20.30
2009,06,04,01,50,20.30
2009,06,04,01,51,20.30
2009,06,04,01,52,20.30
2009,06,04,01,53,20.30
2009,06,04,01,54,20.30
2009,06,04,01,55,20.30
2009,06,04,01,56,20.20
2009,06,04,01,57,20.30
2009,06,04,01,58,20.40
2009,06,04,01,59,20.40
2009,06,04,02,00,20.40
2009,06,04,02,01,20.40
2009,06,04,02,02,20.40
2009,06,04,02,03,20.50
2009,06,04,02,04,20.50
2009,06,04,02,05,20.50
2009,06,04,02,06,20.60
2009,06,04,02,07,20.50
2009,06,04,02,08,20.60
2009,06,04,02,09,20.50
2009,06,04,02,10,20.40
2009,06,04,02,11,20.40
2009,06,04,02,12,20.30
2009,06,04,02,13,20.30
2009,06,04,02,14,20.30
2009,06,04,02,15,20.30
2009,06,04,02,16,20.30
2009,06,04,02,17,20.30
2009,06,04,02,18,20.30
2009,06,04,02,19,20.30
2009,06,04,02,20,20.30
2009,06,04,02,21,20.40
2009,06,04,02,22,20.40
2009,06,04,02,23,20.50
2009,06,04,02,24,20.60
2009,06,04,02,25,20.60
2009,06,04,02,26,20.70
2009,06,04,02,27,20.70
2009,06,04,02,28,20.70
2009,06,04,02,29,20.60
2009,06,04,02,30,20.60
2009,06,04,02,31,20.50
2009,06,04,02,32,20.60
2009,06,04,02,33,20.60
2009,06,04,02,34,20.60
2009,06,04,02,35,20.70
2009,06,04,02,36,20.60
2009,06,04,02,37,20.40
2009,06,04,02,38,20.30
2009,06,04,02,39,20.20
2009,06,04,02,40,20.10
2009,06,04,02,41,20.10
2009,06,04,02,42,20.00
2009,06,04,02,43,20.00
2009,06,04,02,44,20.00
2009,06,04,02,45,20.10
2009,06,04,02,46,20.40
2009,06,04,02,47,20.50
2009,06,04,02,48,20.60
2009,06,04,02,49,20.70
2009,06,04,02,50,20.80
2009,06,04,02,51,20.80
2009,06,04,02,52,20.90
2009,06,04,02,53,20.90
2009,06,04,02,54,20.90
2009,06,04,02,55,21.00
2009,06,04,02,56,21.00
2009,06,04,02,57,21.10
2009,06,04,02,58,21.10
2009,06,04,02,59,21.10
2009,06,04,03,00,21.10
2009,06,04,03,01,21.10
2009,06,04,03,02,21.00
2009,06,04,03,03,20.80
2009,06,04,03,04,20.80
2009,06,04,03,05,20.60
2009,06,04,03,06,20.50
2009,06,04,03,07,20.40
2009,06,04,03,08,20.40
2009,06,04,03,09,20.40
2009,06,04,03,10,20.40
2009,06,04,03,11,20.50
2009,06,04,03,12,20.50
2009,06,04,03,13,20.50
2009,06,04,03,14,20.50
2009,06,04,03,15,20.50
2009,06,04,03,16,20.50
2009,06,04,03,17,20.60
2009,06,04,03,18,20.60
2009,06,04,03,19,20.70
2009,06,04,03,20,20.70
2009,06,04,03,21,20.70
2009,06,04,03,22,20.60
2009,06,04,03,23,20.60
2009,06,04,03,24,20.50
2009,06,04,03,25,20.40
2009,06,04,03,26,20.40
2009,06,04,03,27,20.30
2009,06,04,03,28,20.30
2009,06,04,03,29,20.30
2009,06,04,03,30,20.30
2009,06,04,03,31,20.40
2009,06,04,03,32,20.40
2009,06,04,03,33,20.40
2009,06,04,03,34,20.40
2009,06,04,03,35,20.50
2009,06,04,03,36,20.50
2009,06,04,03,37,20.50
2009,06,04,03,38,20.60
2009,06,04,03,39,20.60
2009,06,04,03,40,20.60
2009,06,04,03,41,20.60
2009,06,04,03,42,20.70
2009,06,04,03,43,20.70
2009,06,04,03,44,20.70
2009,06,04,03,45,20.70
2009,06,04,03,46,20.70
2009,06,04,03,47,20.70
2009,06,04,03,48,20.70
2009,06,04,03,49,20.60
2009,06,04,03,50,20.60
2009,06,04,03,51,20.60
2009,06,04,03,52,20.60
2009,06,04,03,53,20.60
2009,06,04,03,54,20.50
2009,06,04,03,55,20.50
2009,06,04,03,56,20.40
2009,06,04,03,57,20.40
2009,06,04,03,58,20.40
2009,06,04,03,59,20.40
2009,06,04,04,00,20.40
2009,06,04,04,01,20.40
2009,06,04,04,02,20.40
2009,06,04,04,03,20.40
2009,06,04,04,04,20.40
2009,06,04,04,05,20.40
2009,06,04,04,06,20.40
2009,06,04,04,07,20.30
2009,06,04,04,08,20.30
2009,06,04,04,09,20.30
2009,06,04,04,10,20.20
2009,06,04,04,11,20.20
2009,06,04,04,12,20.20
2009,06,04,04,13,20.10
2009,06,04,04,14,20.10
2009,06,04,04,15,20.10
2009,06,04,04,16,20.00
2009,06,04,04,17,20.00
2009,06,04,04,18,20.00
2009,06,04,04,19,19.90
2009,06,04,04,20,19.90
2009,06,04,04,21,19.90
2009,06,04,04,22,19.80
2009,06,04,04,23,19.80
2009,06,04,04,24,19.80
2009,06,04,04,25,19.80
2009,06,04,04,26,19.80
2009,06,04,04,27,19.70
2009,06,04,04,28,19.70
2009,06,04,04,29,19.70
2009,06,04,04,30,19.60
2009,06,04,04,31,19.60
2009,06,04,04,32,19.40
2009,06,04,04,33,19.30
2009,06,04,04,34,19.10
2009,06,04,04,35,19.00
2009,06,04,04,36,18.90
2009,06,04,04,37,18.80
2009,06,04,04,38,18.80
2009,06,04,04,39,18.80
2009,06,04,04,40,18.70
2009,06,04,04,41,18.70
2009,06,04,04,42,18.80
2009,06,04,04,43,18.80
2009,06,04,04,44,18.90
2009,06,04,04,45,19.00
2009,06,04,04,46,19.20
2009,06,04,04,47,19.30
2009,06,04,04,48,19.40
2009,06,04,04,49,19.50
2009,06,04,04,50,19.70
2009,06,04,04,51,19.70
2009,06,04,04,52,19.80
2009,06,04,04,53,19.90
2009,06,04,04,54,19.90
2009,06,04,04,55,19.90
2009,06,04,04,56,20.00
2009,06,04,04,57,20.10
2009,06,04,04,58,20.10
2009,06,04,04,59,20.20
2009,06,04,05,00,20.30
2009,06,04,05,01,20.50
2009,06,04,05,02,20.60
2009,06,04,05,03,20.70
2009,06,04,05,04,20.70
2009,06,04,05,05,20.70
2009,06,04,05,06,20.80
2009,06,04,05,07,20.80
2009,06,04,05,08,20.80
2009,06,04,05,09,20.90
2009,06,04,05,10,20.90
2009,06,04,05,11,20.90
2009,06,04,05,12,20.90
2009,06,04,05,13,20.80
2009,06,04,05,14,20.80
2009,06,04,05,15,20.80
2009,06,04,05,16,20.80
2009,06,04,05,17,20.80
2009,06,04,05,18,20.80
2009,06,04,05,19,20.80
2009,06,04,05,20,20.80
2009,06,04,05,21,20.80
2009,06,04,05,22,20.90
2009,06,04,05,23,20.90
2009,06,04,05,24,20.90
2009,06,04,05,25,20.80
2009,06,04,05,26,20.80
2009,06,04,05,27,20.90
2009,06,04,05,28,20.90
2009,06,04,05,29,20.80
2009,06,04,05,30,20.80
2009,06,04,05,31,20.80
2009,06,04,05,32,20.80
2009,06,04,05,33,20.70
2009,06,04,05,34,20.70
2009,06,04,05,35,20.80
2009,06,04,05,36,20.80
2009,06,04,05,37,20.80
2009,06,04,05,38,20.80
2009,06,04,05,39,20.90
2009,06,04,05,40,20.90
2009,06,04,05,41,21.00
2009,06,04,05,42,21.00
2009,06,04,05,43,21.10
2009,06,04,05,44,21.10
2009,06,04,05,45,21.10
2009,06,04,05,46,21.20
2009,06,04,05,47,21.20
2009,06,04,05,48,21.20
2009,06,04,05,49,21.20
2009,06,04,05,50,21.20
2009,06,04,05,51,21.10
2009,06,04,05,52,21.10
2009,06,04,05,53,21.10
2009,06,04,05,54,21.10
2009,06,04,05,55,21.10
2009,06,04,05,56,21.10
2009,06,04,05,57,21.10
2009,06,04,05,58,21.10
2009,06,04,05,59,21.10
2009,06,04,06,00,21.00
2009,06,04,06,01,21.00
2009,06,04,06,02,21.00
2009,06,04,06,03,21.00
2009,06,04,06,04,21.00
2009,06,04,06,05,21.00
2009,06,04,06,06,21.00
2009,06,04,06,07,21.00
2009,06,04,06,08,21.10
2009,06,04,06,09,21.10
2009,06,04,06,10,21.10
2009,06,04,06,11,21.10
2009,06,04,06,12,21.10
2009,06,04,06,13,21.10
2009,06,04,06,14,21.20
2009,06,04,06,15,21.20
2009,06,04,06,16,21.20
2009,06,04,06,17,21.20
2009,06,04,06,18,21.20
2009,06,04,06,19,21.20
2009,06,04,06,20,21.20
2009,06,04,06,21,21.20
2009,06,04,06,22,21.30
2009,06,04,06,23,21.30
2009,06,04,06,24,21.30
2009,06,04,06,25,21.30
2009,06,04,06,26,21.30
2009,06,04,06,27,21.40
2009,06,04,06,28,21.40
2009,06,04,06,29,21.40
2009,06,04,06,30,21.40
2009,06,04,06,31,21.40
2009,06,04,06,32,21.40
2009,06,04,06,33,21.40
2009,06,04,06,34,21.40
2009,06,04,06,35,21.40
2009,06,04,06,36,21.40
2009,06,04,06,37,21.30
2009,06,04,06,38,21.30
2009,06,04,06,39,21.30
2009,06,04,06,40,21.30
2009,06,04,06,41,21.30
2009,06,04,06,42,21.30
2009,06,04,06,43,21.20
2009,06,04,06,44,21.20
2009,06,04,06,45,21.20
2009,06,04,06,46,21.30
2009,06,04,06,47,21.30
2009,06,04,06,48,21.30
2009,06,04,06,49,21.30
2009,06,04,06,50,21.30
2009,06,04,06,51,21.40
2009,06,04,06,52,21.40
2009,06,04,06,53,21.40
2009,06,04,06,54,21.40
2009,06,04,06,55,21.40
2009,06,04,06,56,21.50
2009,06,04,06,57,21.50
2009,06,04,06,58,21.50
2009,06,04,06,59,21.40
2009,06,04,07,00,21.40
2009,06,04,07,01,21.40
2009,06,04,07,02,21.40
2009,06,04,07,03,21.40
2009,06,04,07,04,21.40
2009,06,04,07,05,21.40
2009,06,04,07,06,21.40
2009,06,04,07,07,21.40
2009,06,04,07,08,21.50
2009,06,04,07,09,21.50
2009,06,04,07,10,21.50
2009,06,04,07,11,21.60
2009,06,04,07,12,21.60
2009,06,04,07,13,21.60
2009,06,04,07,14,21.60
2009,06,04,07,15,21.70
2009,06,04,07,16,21.70
2009,06,04,07,17,21.70
2009,06,04,07,18,21.70
2009,06,04,07,19,21.70
2009,06,04,07,20,21.70
2009,06,04,07,21,21.60
2009,06,04,07,22,21.60
2009,06,04,07,23,21.60
2009,06,04,07,24,21.60
2009,06,04,07,25,21.60
2009,06,04,07,26,21.60
2009,06,04,07,27,21.60
2009,06,04,07,28,21.60
2009,06,04,07,29,21.60
2009,06,04,07,30,21.60
2009,06,04,07,31,21.50
2009,06,04,07,32,21.50
2009,06,04,07,33,21.40
2009,06,04,07,34,21.40
2009,06,04,07,35,21.40
2009,06,04,07,36,21.30
2009,06,04,07,37,21.30
2009,06,04,07,38,21.30
2009,06,04,07,39,21.30
2009,06,04,07,40,21.30
2009,06,04,07,41,21.30
2009,06,04,07,42,21.30
2009,06,04,07,43,21.30
2009,06,04,07,44,21.40
2009,06,04,07,45,21.40
2009,06,04,07,46,21.40
2009,06,04,07,47,21.40
2009,06,04,07,48,21.40
2009,06,04,07,49,21.40
2009,06,04,07,50,21.50
2009,06,04,07,51,21.50
2009,06,04,07,52,21.50
2009,06,04,07,53,21.50
2009,06,04,07,54,21.50
2009,06,04,07,55,21.50
2009,06,04,07,56,21.60
2009,06,04,07,57,21.60
2009,06,04,07,58,21.60
2009,06,04,07,59,21.60
2009,06,04,08,00,21.70
2009,06,04,08,01,21.70
2009,06,04,08,02,21.60
2009,06,04,08,03,21.60
2009,06,04,08,04,21.60
2009,06,04,08,05,21.60
2009,06,04,08,06,21.50
2009,06,04,08,07,21.40
2009,06,04,08,08,21.40
2009,06,04,08,09,21.30
2009,06,04,08,10,21.30
2009,06,04,08,11,21.30
2009,06,04,08,12,21.30
2009,06,04,08,13,21.20
2009,06,04,08,14,21.20
2009,06,04,08,15,21.10
2009,06,04,08,16,21.00
2009,06,04,08,17,21.00
2009,06,04,08,18,20.90
2009,06,04,08,19,20.80
2009,06,04,08,20,20.80
2009,06,04,08,21,20.80
2009,06,04,08,22,20.70
2009,06,04,08,23,20.60
2009,06,04,08,24,20.60
2009,06,04,08,25,20.60
2009,06,04,08,26,20.50
2009,06,04,08,27,20.40
2009,06,04,08,28,20.40
2009,06,04,08,29,20.40
2009,06,04,08,30,20.40
2009,06,04,08,31,20.30
2009,06,04,08,32,20.20
2009,06,04,08,33,20.20
2009,06,04,08,34,20.10
2009,06,04,08,35,20.10
2009,06,04,08,36,20.10
2009,06,04,08,37,20.10
2009,06,04,08,38,20.10
2009,06,04,08,39,20.10
2009,06,04,08,40,20.10
2009,06,04,08,41,20.10
2009,06,04,08,42,20.10
2009,06,04,08,43,20.10
2009,06,04,08,44,20.00
2009,06,04,08,45,20.00
2009,06,04,08,46,20.00
2009,06,04,08,47,19.80
2009,06,04,08,48,19.70
2009,06,04,08,49,19.70
2009,06,04,08,50,19.70
2009,06,04,08,51,19.70
2009,06,04,08,52,19.70
2009,06,04,08,53,19.80
2009,06,04,08,54,19.80
2009,06,04,08,55,19.80
2009,06,04,08,56,19.80
2009,06,04,08,57,19.80
2009,06,04,08,58,19.90
2009,06,04,08,59,19.90
2009,06,04,09,00,19.90
2009,06,04,09,01,20.00
2009,06,04,09,02,20.00
2009,06,04,09,03,20.00
2009,06,04,09,04,20.10
2009,06,04,09,05,20.10
2009,06,04,09,06,20.20
2009,06,04,09,07,20.20
2009,06,04,09,08,20.20
2009,06,04,09,09,20.20
2009,06,04,09,10,20.20
2009,06,04,09,11,20.30
2009,06,04,09,12,20.30
2009,06,04,09,13,20.40
2009,06,04,09,14,20.50
2009,06,04,09,15,20.60
2009,06,04,09,16,20.60
2009,06,04,09,17,20.60
2009,06,04,09,18,20.60
2009,06,04,09,19,20.70
2009,06,04,09,20,20.70
2009,06,04,09,21,20.70
2009,06,04,09,22,20.70
2009,06,04,09,23,20.70
2009,06,04,09,24,20.60
2009,06,04,09,25,20.60
2009,06,04,09,26,20.60
2009,06,04,09,27,20.60
2009,06,04,09,28,20.70
2009,06,04,09,29,20.70
2009,06,04,09,30,20.80
2009,06,04,09,31,20.80
2009,06,04,09,32,20.80
2009,06,04,09,33,20.80
2009,06,04,09,34,20.70
2009,06,04,09,35,20.70
2009,06,04,09,36,20.60
2009,06,04,09,37,20.60
2009,06,04,09,38,20.60
2009,06,04,09,39,20.50
2009,06,04,09,40,20.50
2009,06,04,09,41,20.60
2009,06,04,09,42,20.60
2009,06,04,09,43,20.60
2009,06,04,09,44,20.50
2009,06,04,09,45,20.50
2009,06,04,09,46,20.40
2009,06,04,09,47,20.30
2009,06,04,09,48,20.30
2009,06,04,09,49,20.20
2009,06,04,09,50,20.20
2009,06,04,09,51,20.20
2009,06,04,09,52,20.20
2009,06,04,09,53,20.20
2009,06,04,09,54,20.20
2009,06,04,09,55,20.20
2009,06,04,09,56,20.20
2009,06,04,09,57,20.30
2009,06,04,09,58,20.30
2009,06,04,09,59,20.30
2009,06,04,10,00,20.30
2009,06,04,10,01,20.30
2009,06,04,10,02,20.30
2009,06,04,10,03,20.30
2009,06,04,10,04,20.30
2009,06,04,10,05,20.40
2009,06,04,10,06,20.40
2009,06,04,10,07,20.50
2009,06,04,10,08,20.50
2009,06,04,10,09,20.60
2009,06,04,10,10,20.60
2009,06,04,10,11,20.60
2009,06,04,10,12,20.60
2009,06,04,10,13,20.70
2009,06,04,10,14,20.70
2009,06,04,10,15,20.70
2009,06,04,10,16,20.80
2009,06,04,10,17,20.70
2009,06,04,10,18,20.70
2009,06,04,10,19,20.70
2009,06,04,10,20,20.70
2009,06,04,10,21,20.70
2009,06,04,10,22,20.80
2009,06,04,10,23,20.90
2009,06,04,10,24,21.00
2009,06,04,10,25,21.10
2009,06,04,10,26,21.10
2009,06,04,10,27,21.10
2009,06,04,10,28,21.10
2009,06,04,10,29,21.10
2009,06,04,10,30,21.10
2009,06,04,10,31,21.20
2009,06,04,10,32,21.20
2009,06,04,10,33,21.30
2009,06,04,10,34,21.30
2009,06,04,10,35,21.30
2009,06,04,10,36,21.30
2009,06,04,10,37,21.30
2009,06,04,10,38,21.30
2009,06,04,10,39,21.30
2009,06,04,10,40,21.40
2009,06,04,10,41,21.40
2009,06,04,10,42,21.40
2009,06,04,10,43,21.30
2009,06,04,10,44,21.40
2009,06,04,10,45,21.50
2009,06,04,10,46,21.50
2009,06,04,10,47,21.50
2009,06,04,10,48,21.60
2009,06,04,10,49,21.70
2009,06,04,10,50,21.80
2009,06,04,10,51,21.80
2009,06,04,10,52,21.80
2009,06,04,10,53,21.80
2009,06,04,10,54,21.80
2009,06,04,10,55,21.80
2009,06,04,10,56,21.80
2009,06,04,10,57,21.80
2009,06,04,10,58,21.80
2009,06,04,10,59,21.90
2009,06,04,11,00,21.90
2009,06,04,11,01,21.90
2009,06,04,11,02,21.90
2009,06,04,11,03,21.90
2009,06,04,11,04,21.90
2009,06,04,11,05,21.90
2009,06,04,11,06,21.80
2009,06,04,11,07,21.80
2009,06,04,11,08,21.70
2009,06,04,11,09,21.70
2009,06,04,11,10,21.80
2009,06,04,11,11,21.80
2009,06,04,11,12,21.70
2009,06,04,11,13,21.80
2009,06,04,11,14,21.80
2009,06,04,11,15,21.80
2009,06,04,11,16,21.80
2009,06,04,11,17,21.80
2009,06,04,11,18,21.80
2009,06,04,11,19,21.70
2009,06,04,11,20,21.70
2009,06,04,11,21,21.70
2009,06,04,11,22,21.70
2009,06,04,11,23,21.80
2009,06,04,11,24,21.90
2009,06,04,11,25,21.90
2009,06,04,11,26,22.00
2009,06,04,11,27,22.10
2009,06,04,11,28,22.20
2009,06,04,11,29,22.30
2009,06,04,11,30,22.50
2009,06,04,11,31,22.70
2009,06,04,11,32,22.70
2009,06,04,11,33,22.70
2009,06,04,11,34,22.60
2009,06,04,11,35,22.50
2009,06,04,11,36,22.40
2009,06,04,11,37,22.40
2009,06,04,11,38,22.30
2009,06,04,11,39,22.30
2009,06,04,11,40,22.20
2009,06,04,11,41,22.20
2009,06,04,11,42,22.10
2009,06,04,11,43,22.10
2009,06,04,11,44,22.00
2009,06,04,11,45,22.00
2009,06,04,11,46,22.00
2009,06,04,11,47,22.00
2009,06,04,11,48,22.20
2009,06,04,11,49,22.30
2009,06,04,11,50,22.40
2009,06,04,11,51,22.40
2009,06,04,11,52,22.50
2009,06,04,11,53,22.50
2009,06,04,11,54,22.50
2009,06,04,11,55,22.60
2009,06,04,11,56,22.70
2009,06,04,11,57,22.70
2009,06,04,11,58,22.70
2009,06,04,11,59,22.70
2009,06,04,12,00,22.70
2009,06,04,12,01,22.80
2009,06,04,12,02,22.90
2009,06,04,12,03,23.00
2009,06,04,12,04,23.10
2009,06,04,12,05,23.20
2009,06,04,12,06,23.40
2009,06,04,12,07,23.50
2009,06,04,12,08,23.50
2009,06,04,12,09,23.60
2009,06,04,12,10,23.60
2009,06,04,12,11,23.70
2009,06,04,12,12,23.80
2009,06,04,12,13,23.90
2009,06,04,12,14,23.90
2009,06,04,12,15,23.90
2009,06,04,12,16,23.90
2009,06,04,12,17,24.00
2009,06,04,12,18,24.00
2009,06,04,12,19,23.90
2009,06,04,12,20,23.90
2009,06,04,12,21,23.80
2009,06,04,12,22,23.80
2009,06,04,12,23,23.80
2009,06,04,12,24,23.80
2009,06,04,12,25,23.80
2009,06,04,12,26,23.80
2009,06,04,12,27,23.80
2009,06,04,12,28,23.80
2009,06,04,12,29,23.90
2009,06,04,12,30,23.90
2009,06,04,12,31,24.00
2009,06,04,12,32,24.00
2009,06,04,12,33,24.00
2009,06,04,12,34,24.10
2009,06,04,12,35,24.20
2009,06,04,12,36,24.30
2009,06,04,12,37,24.40
2009,06,04,12,38,24.60
2009,06,04,12,39,24.70
2009,06,04,12,40,24.80
2009,06,04,12,41,24.90
2009,06,04,12,42,24.90
2009,06,04,12,43,24.90
2009,06,04,12,44,24.90
2009,06,04,12,45,24.90
2009,06,04,12,46,24.80
2009,06,04,12,47,24.90
2009,06,04,12,48,25.00
2009,06,04,12,49,25.10
2009,06,04,12,50,25.10
2009,06,04,12,51,25.20
2009,06,04,12,52,25.30
2009,06,04,12,53,25.30
2009,06,04,12,54,25.30
2009,06,04,12,55,25.40
2009,06,04,12,56,25.40
2009,06,04,12,57,25.30
2009,06,04,12,58,25.30
2009,06,04,12,59,25.20
2009,06,04,13,00,25.20
2009,06,04,13,01,25.10
2009,06,04,13,02,25.00
2009,06,04,13,03,25.00
2009,06,04,13,04,25.00
2009,06,04,13,05,25.10
2009,06,04,13,06,25.00
2009,06,04,13,07,25.00
2009,06,04,13,08,25.00
2009,06,04,13,09,25.00
2009,06,04,13,10,25.00
2009,06,04,13,11,25.10
2009,06,04,13,12,25.10
2009,06,04,13,13,25.00
2009,06,04,13,14,25.00
2009,06,04,13,15,24.90
2009,06,04,13,16,24.90
2009,06,04,13,17,24.90
2009,06,04,13,18,24.90
2009,06,04,13,19,24.90
2009,06,04,13,20,24.90
2009,06,04,13,21,25.00
2009,06,04,13,22,25.10
2009,06,04,13,23,25.10
2009,06,04,13,24,25.30
2009,06,04,13,25,25.40
2009,06,04,13,26,25.60
2009,06,04,13,27,25.70
2009,06,04,13,28,25.70
2009,06,04,13,29,25.80
2009,06,04,13,30,25.90
2009,06,04,13,31,25.90
2009,06,04,13,32,25.90
2009,06,04,13,33,25.90
2009,06,04,13,34,25.90
2009,06,04,13,35,25.90
2009,06,04,13,36,26.00
2009,06,04,13,37,26.00
2009,06,04,13,38,26.10
2009,06,04,13,39,26.10
2009,06,04,13,40,26.00
2009,06,04,13,41,25.90
2009,06,04,13,42,25.90
2009,06,04,13,43,26.10
2009,06,04,13,44,26.30
2009,06,04,13,45,26.50
2009,06,04,13,46,26.60
2009,06,04,13,47,26.60
2009,06,04,13,48,26.60
2009,06,04,13,49,26.70
2009,06,04,13,50,26.70
2009,06,04,13,51,26.80
2009,06,04,13,52,26.80
2009,06,04,13,53,26.80
2009,06,04,13,54,26.70
2009,06,04,13,55,26.70
2009,06,04,13,56,26.70
2009,06,04,13,57,26.60
2009,06,04,13,58,26.60
2009,06,04,13,59,26.60
2009,06,04,14,00,26.60
2009,06,04,14,01,26.60
2009,06,04,14,02,26.70
2009,06,04,14,03,26.70
2009,06,04,14,04,26.80
2009,06,04,14,05,26.80
2009,06,04,14,06,26.90
2009,06,04,14,07,26.90
2009,06,04,14,08,26.90
2009,06,04,14,09,26.90
2009,06,04,14,10,26.90
2009,06,04,14,11,27.00
2009,06,04,14,12,27.00
2009,06,04,14,13,26.90
2009,06,04,14,14,26.90
2009,06,04,14,15,26.80
2009,06,04,14,16,26.80
2009,06,04,14,17,26.80
2009,06,04,14,18,26.80
2009,06,04,14,19,26.80
2009,06,04,14,20,26.90
2009,06,04,14,21,26.90
2009,06,04,14,22,27.00
2009,06,04,14,23,27.00
2009,06,04,14,24,26.90
2009,06,04,14,25,26.90
2009,06,04,14,26,26.80
2009,06,04,14,27,26.80
2009,06,04,14,28,26.80
2009,06,04,14,29,26.90
2009,06,04,14,30,27.00
2009,06,04,14,31,27.00
2009,06,04,14,32,27.00
2009,06,04,14,33,27.00
2009,06,04,14,34,27.00
2009,06,04,14,35,26.90
2009,06,04,14,36,26.90
2009,06,04,14,37,26.80
2009,06,04,14,38,26.90
2009,06,04,14,39,27.00
2009,06,04,14,40,27.00
2009,06,04,14,41,27.00
2009,06,04,14,42,27.00
2009,06,04,14,43,26.90
2009,06,04,14,44,26.90
2009,06,04,14,45,26.90
2009,06,04,14,46,27.00
2009,06,04,14,47,27.00
2009,06,04,14,48,27.10
2009,06,04,14,49,27.20
2009,06,04,14,50,27.40
2009,06,04,14,51,27.50
2009,06,04,14,52,27.50
2009,06,04,14,53,27.50
2009,06,04,14,54,27.50
2009,06,04,14,55,27.50
2009,06,04,14,56,27.50
2009,06,04,14,57,27.60
2009,06,04,14,58,27.60
2009,06,04,14,59,27.70
2009,06,04,15,00,27.60
2009,06,04,15,01,27.70
2009,06,04,15,02,27.70
2009,06,04,15,03,27.70
2009,06,04,15,04,27.70
2009,06,04,15,05,27.70
2009,06,04,15,06,27.60
2009,06,04,15,07,27.60
2009,06,04,15,08,27.70
2009,06,04,15,09,27.80
2009,06,04,15,10,27.80
2009,06,04,15,11,27.80
2009,06,04,15,12,27.70
2009,06,04,15,13,27.70
2009,06,04,15,14,27.70
2009,06,04,15,15,27.80
2009,06,04,15,16,27.80
2009,06,04,15,17,27.90
2009,06,04,15,18,27.90
2009,06,04,15,19,27.90
2009,06,04,15,20,27.90
2009,06,04,15,21,27.80
2009,06,04,15,22,27.80
2009,06,04,15,23,27.80
2009,06,04,15,24,27.80
2009,06,04,15,25,27.70
2009,06,04,15,26,27.80
2009,06,04,15,27,27.80
2009,06,04,15,28,27.80
2009,06,04,15,29,27.90
2009,06,04,15,30,28.00
2009,06,04,15,31,28.00
2009,06,04,15,32,28.10
2009,06,04,15,33,28.20
2009,06,04,15,34,28.20
2009,06,04,15,35,28.20
2009,06,04,15,36,28.20
2009,06,04,15,37,28.20
2009,06,04,15,38,28.20
2009,06,04,15,39,28.20
2009,06,04,15,40,28.10
2009,06,04,15,41,28.10
2009,06,04,15,42,28.20
2009,06,04,15,43,28.20
2009,06,04,15,44,28.10
2009,06,04,15,45,28.10
2009,06,04,15,46,28.20
2009,06,04,15,47,28.20
2009,06,04,15,48,28.20
2009,06,04,15,49,28.20
2009,06,04,15,50,28.30
2009,06,04,15,51,28.30
2009,06,04,15,52,28.40
2009,06,04,15,53,28.40
2009,06,04,15,54,28.40
2009,06,04,15,55,28.40
2009,06,04,15,56,28.40
2009,06,04,15,57,28.50
2009,06,04,15,58,28.50
2009,06,04,15,59,28.60
2009,06,04,16,00,28.60
2009,06,04,16,01,28.70
2009,06,04,16,02,28.70
2009,06,04,16,03,28.70
2009,06,04,16,04,28.70
2009,06,04,16,05,28.70
2009,06,04,16,06,28.80
2009,06,04,16,07,28.80
2009,06,04,16,08,28.90
2009,06,04,16,09,28.90
2009,06,04,16,10,28.90
2009,06,04,16,11,28.90
2009,06,04,16,12,28.90
2009,06,04,16,13,29.00
2009,06,04,16,14,29.00
2009,06,04,16,15,29.10
2009,06,04,16,16,29.10
2009,06,04,16,17,29.20
2009,06,04,16,18,29.30
2009,06,04,16,19,29.30
2009,06,04,16,20,29.30
2009,06,04,16,21,29.30
2009,06,04,16,22,29.30
2009,06,04,16,23,29.30
2009,06,04,16,24,29.30
2009,06,04,16,25,29.30
2009,06,04,16,26,29.30
2009,06,04,16,27,29.30
2009,06,04,16,28,29.20
2009,06,04,16,29,29.20
2009,06,04,16,30,29.20
2009,06,04,16,31,29.20
2009,06,04,16,32,29.20
2009,06,04,16,33,29.30
2009,06,04,16,34,29.30
2009,06,04,16,35,29.30
2009,06,04,16,36,29.40
2009,06,04,16,37,29.40
2009,06,04,16,38,29.50
2009,06,04,16,39,29.50
2009,06,04,16,40,29.60
2009,06,04,16,41,29.70
2009,06,04,16,42,29.80
2009,06,04,16,43,29.80
2009,06,04,16,44,29.90
2009,06,04,16,45,29.90
2009,06,04,16,46,30.00
2009,06,04,16,47,30.10
2009,06,04,16,48,30.00
2009,06,04,16,49,30.00
2009,06,04,16,50,30.00
2009,06,04,16,51,29.90
2009,06,04,16,52,30.00
2009,06,04,16,53,30.00
2009,06,04,16,54,30.10
2009,06,04,16,55,30.10
2009,06,04,16,56,30.10
2009,06,04,16,57,30.10
2009,06,04,16,58,30.10
2009,06,04,16,59,30.10
2009,06,04,17,00,30.10
2009,06,04,17,01,30.10
2009,06,04,17,02,30.10
2009,06,04,17,03,30.10
2009,06,04,17,04,30.20
2009,06,04,17,05,30.20
2009,06,04,17,06,30.20
2009,06,04,17,07,30.20
2009,06,04,17,08,30.20
2009,06,04,17,09,30.20
2009,06,04,17,10,30.20
2009,06,04,17,11,30.10
2009,06,04,17,12,30.10
2009,06,04,17,13,30.10
2009,06,04,17,14,30.10
2009,06,04,17,15,30.10
2009,06,04,17,16,30.20
2009,06,04,17,17,30.20
2009,06,04,17,18,30.20
2009,06,04,17,19,30.10